Pottstown, PA

6:36 AM EDT on May 28, 2018 (GMT -0400)
Pottstown Limerick

Weather History for KPTW - January, 2013

Change the Weather History Date:

Friday, January 25, 2013

  Actual Average (KRDG) Record (KRDG)
Temperature  
Mean Temperature 16 °F -  
Max Temperature 21 °F 34 °F 73 °F (1967)
Min Temperature 9 °F 19 °F -3 °F (1987)
Degree Days  
Heating Degree Days 50    
Moisture  
Dew Point 9 °F    
Average Humidity 75    
Maximum Humidity 93    
Minimum Humidity 40    
Precipitation  
Precipitation 0.05 in - - ()
Sea Level Pressure  
Sea Level Pressure 30.24 in    
Wind  
Wind Speed 4 mph (WSW)    
Max Wind Speed 9 mph    
Max Gust Speed 17 mph    
Visibility 6 miles    
Events Fog , Snow    
Averages and records for this station are not official NWS values.
T = Trace of Precipitation, MM = Missing Value Source: NWS Daily Summary

Daily Weather History Graph

Daily Weather History Graph

Search for Another Location

Airport or City:

Astronomy

Jan. 25, 2013 Rise Set
Actual Time 7:16 AM EST 5:12 PM EST
Civil Twilight 6:47 AM EST 5:41 PM EST
Nautical Twilight 6:14 AM EST 6:14 PM EST
Astronomical Twilight 5:42 AM EST 6:47 PM EST
Moon 4:07 PM EST (1/25) 5:55 AM EST (1/25)
Length of Visible Light 10h 54m
Length of Day
9h 55m
Waxing Gibbous, 98% of the Moon is Illuminated
Jan 25
Waxing Gibbous
Jan 26
Full
Feb 3
Last Quarter
Feb 10
New
Feb 17
First Quarter

Hourly Weather History & Observations

Time (EST) Temp. Windchill Dew Point Humidity Pressure Visibility Wind Dir Wind Speed Gust Speed Precip Events Conditions
12:54 AM 16.0 °F 6.3 °F -0.0 °F 49% 30.47 in 10.0 mi NNW 6.9 mph 17.3 mph N/A   Clear
1:54 AM 15.1 °F 4.2 °F -0.9 °F 49% 30.47 in 10.0 mi NW 8.1 mph - N/A   Clear
2:54 AM 14.0 °F 3.9 °F 1.0 °F 56% 30.48 in 10.0 mi WNW 6.9 mph - N/A   Clear
3:54 AM 12.9 °F 6.9 °F 1.0 °F 59% 30.48 in 10.0 mi WSW 3.5 mph - N/A   Clear
4:54 AM 14.0 °F 8.2 °F 1.9 °F 59% 30.47 in 10.0 mi West 3.5 mph - N/A   Clear
5:54 AM 14.0 °F 2.0 °F 1.9 °F 59% 30.43 in 10.0 mi NNW 9.2 mph - N/A   Clear
6:54 AM 14.0 °F - 1.9 °F 59% 30.44 in 10.0 mi Calm Calm - N/A   Clear
7:54 AM 15.1 °F 7.7 °F 1.9 °F 56% 30.44 in 10.0 mi WNW 4.6 mph - N/A   Clear
8:54 AM 15.1 °F 7.7 °F 1.9 °F 56% 30.44 in 10.0 mi West 4.6 mph - N/A   Clear
9:54 AM 17.1 °F 11.7 °F 3.0 °F 54% 30.43 in 10.0 mi West 3.5 mph - N/A   Clear
10:54 AM 18.0 °F 9.8 °F 1.9 °F 50% 30.38 in 10.0 mi ENE 5.8 mph - N/A   Partly Cloudy
11:54 AM 19.0 °F - 3.0 °F 50% 30.36 in 10.0 mi Calm Calm - N/A   Scattered Clouds
12:54 PM 19.0 °F - 3.0 °F 50% 30.30 in 10.0 mi Calm Calm - N/A   Overcast
1:54 PM 21.0 °F - 3.0 °F 46% 30.25 in 10.0 mi Calm Calm - N/A   Overcast
2:54 PM 21.9 °F 17.2 °F 1.0 °F 40% 30.23 in 10.0 mi Variable 3.5 mph - N/A   Overcast
3:36 PM 19.4 °F 12.8 °F 8.6 °F 63% 30.20 in 2.0 mi SSE 4.6 mph - 0.00 in Snow Light Snow
3:43 PM 19.4 °F 12.8 °F 10.4 °F 68% 30.21 in 1.0 mi South 4.6 mph - 0.00 in Snow Light Snow
3:51 PM 19.4 °F 12.8 °F 12.2 °F 74% 30.20 in 0.8 mi SSE 4.6 mph - 0.00 in Snow Light Snow
3:54 PM 19.0 °F 11.1 °F 12.9 °F 77% 30.21 in 0.8 mi South 5.8 mph - 0.00 in Snow Light Snow
4:27 PM 17.6 °F 12.3 °F 15.8 °F 93% 30.18 in 0.5 mi South 3.5 mph - 0.01 in Fog , Snow Snow
4:35 PM 17.6 °F 10.7 °F 15.8 °F 93% 30.18 in 0.2 mi South 4.6 mph - 0.02 in Fog , Snow Heavy Snow
4:45 PM 17.6 °F - 15.8 °F 93% 30.17 in 0.5 mi Calm Calm - 0.02 in Fog , Snow Snow
4:54 PM 18.0 °F - 15.1 °F 88% 30.17 in 0.8 mi Calm Calm - 0.03 in Snow Light Snow
5:29 PM 17.6 °F - 15.8 °F 93% 30.15 in 1.2 mi Calm Calm - 0.01 in Snow Light Snow
5:54 PM 18.0 °F - 15.1 °F 88% 30.15 in 2.5 mi Calm Calm - 0.02 in Snow Light Snow
6:04 PM 17.6 °F - 15.8 °F 93% 30.15 in 4.0 mi Calm Calm - 0.00 in Snow Light Snow
6:29 PM 17.6 °F - 15.8 °F 93% 30.14 in 2.5 mi Calm Calm - 0.00 in Snow Light Snow
6:54 PM 18.0 °F - 15.1 °F 88% 30.14 in 2.5 mi Calm Calm - 0.00 in Snow Light Snow
7:23 PM 17.6 °F - 15.8 °F 93% 30.12 in 2.5 mi Calm Calm - 0.00 in Snow Light Snow
7:31 PM 17.6 °F - 14.0 °F 86% 30.12 in 3.0 mi Calm Calm - 0.00 in Snow Light Snow
7:54 PM 16.0 °F - 14.0 °F 92% 30.14 in 4.0 mi Calm Calm - 0.00 in Snow Light Snow
8:08 PM 15.8 °F - 14.0 °F 93% 30.12 in 4.0 mi Calm Calm - 0.00 in Snow Light Snow
8:16 PM 15.8 °F - 12.2 °F 86% 30.11 in 4.0 mi Calm Calm - 0.00 in Snow Light Snow
8:23 PM 14.0 °F - 12.2 °F 93% 30.11 in 5.0 mi Calm Calm - 0.00 in   Overcast
8:40 PM 14.0 °F - 12.2 °F 93% 30.10 in 7.0 mi Calm Calm - 0.00 in   Overcast
8:54 PM 15.1 °F - 12.9 °F 91% 30.11 in 7.0 mi Calm Calm - 0.00 in   Overcast
9:54 PM 15.1 °F 9.4 °F 12.0 °F 88% 30.09 in 7.0 mi ENE 3.5 mph - N/A   Overcast
10:54 PM 12.9 °F - 10.9 °F 92% 30.08 in 5.0 mi Calm Calm - N/A   Overcast
11:07 PM 12.2 °F - 10.4 °F 92% 30.08 in 6.0 mi Calm Calm - N/A   Mostly Cloudy
11:38 PM 10.4 °F - 8.6 °F 92% 30.08 in 6.0 mi Calm Calm - N/A   Scattered Clouds
11:54 PM 9.0 °F - 6.1 °F 88% 30.10 in 5.0 mi Calm Calm - N/A   Scattered Clouds